AAL3 KMAF-KNRB

Flight info

Callsign AAL3
Flight time 1h 55m
Altitude 39000
Route ABI J50 MCB ZOOSS MARQO3
Aircraft B77W/H-SDE1E2E3FGHIJ2J3J4J5M1RWXY/LB1D1

Departure

Time 2026-05-06 18:42
Airport Midland International Air and Space Port (KMAF)

Arrival

Time 2026-05-06 20:37
Airport Naval Station Mayport / Admiral David L McDonald Field (KNRB)
Time Latitude Longitude Altitude Speed Heading
2026-05-06 18:36 31.93701 -102.20693 2868 ft 0 kts 268°
2026-05-06 18:39 31.93700 -102.20697 2868 ft 1 kts 249°
2026-05-06 18:40 31.93722 -102.20632 2867 ft 15 kts 38°
2026-05-06 18:40 31.93850 -102.20585 2868 ft 22 kts
2026-05-06 18:40 31.94029 -102.20580 2869 ft 27 kts 359°
2026-05-06 18:40 31.94233 -102.20615 2870 ft 31 kts 316°
2026-05-06 18:41 31.94338 -102.20865 2873 ft 36 kts 293°
2026-05-06 18:41 31.94450 -102.21154 2875 ft 40 kts 295°
2026-05-06 18:41 31.94568 -102.21476 2877 ft 44 kts 295°
2026-05-06 18:41 31.94683 -102.21671 2879 ft 22 kts
2026-05-06 18:42 31.94712 -102.21495 2878 ft 35 kts 111°
2026-05-06 18:42 31.94471 -102.20844 2874 ft 136 kts 114°
2026-05-06 18:42 31.93955 -102.19500 3043 ft 212 kts 112°
2026-05-06 18:42 31.93611 -102.17763 4142 ft 224 kts 81°
2026-05-06 18:43 31.93961 -102.15978 5549 ft 242 kts 72°
2026-05-06 18:43 31.94452 -102.13973 6765 ft 270 kts 72°
2026-05-06 18:43 31.94996 -102.11784 8160 ft 291 kts 72°
2026-05-06 18:43 31.95579 -102.09436 9506 ft 313 kts 72°
2026-05-06 18:44 31.96204 -102.06915 11000 ft 328 kts 73°
2026-05-06 18:44 31.96855 -102.04282 12195 ft 352 kts 73°
2026-05-06 18:44 31.97560 -102.01427 13406 ft 375 kts 74°
2026-05-06 18:44 31.98303 -101.98408 14644 ft 395 kts 74°
2026-05-06 18:45 31.99086 -101.95216 15800 ft 417 kts 75°
2026-05-06 18:45 31.99915 -101.91829 16868 ft 439 kts 75°
2026-05-06 18:45 32.00776 -101.88313 17958 ft 458 kts 75°
2026-05-06 18:45 32.01380 -101.85838 18704 ft 471 kts 75°
2026-05-06 18:46 32.02621 -101.80752 20110 ft 497 kts 75°
2026-05-06 18:46 32.03587 -101.76787 21142 ft 515 kts 75°
2026-05-06 18:46 32.04599 -101.72626 22224 ft 529 kts 76°
2026-05-06 18:46 32.05619 -101.68422 23346 ft 541 kts 76°
2026-05-06 18:47 32.06662 -101.64124 24435 ft 550 kts 76°
2026-05-06 18:47 32.07728 -101.59718 25485 ft 559 kts 76°
2026-05-06 18:47 32.08802 -101.55271 26380 ft 569 kts 76°
2026-05-06 18:47 32.09889 -101.50764 27244 ft 578 kts 76°
2026-05-06 18:48 32.11007 -101.46117 28035 ft 587 kts 76°
2026-05-06 18:48 32.12139 -101.41405 28765 ft 596 kts 76°
2026-05-06 18:48 32.13269 -101.36696 29549 ft 602 kts 76°
2026-05-06 18:48 32.14432 -101.31840 30452 ft 604 kts 78°
2026-05-06 18:49 32.15573 -101.27066 31441 ft 602 kts 78°
2026-05-06 18:49 32.16716 -101.22277 32289 ft 602 kts 77°
2026-05-06 18:49 32.17858 -101.17477 33077 ft 603 kts 78°
2026-05-06 18:49 32.18985 -101.12737 33975 ft 602 kts 78°
2026-05-06 18:50 32.20114 -101.07971 34789 ft 603 kts 78°
2026-05-06 18:50 32.21258 -101.03136 35651 ft 602 kts 78°
2026-05-06 18:50 32.22390 -100.98338 36392 ft 602 kts 78°
2026-05-06 18:50 32.23278 -100.94567 36846 ft 604 kts 77°
2026-05-06 18:51 32.24439 -100.89629 37488 ft 605 kts 77°
2026-05-06 18:51 32.25581 -100.84759 38111 ft 606 kts 77°
2026-05-06 18:51 32.26730 -100.79853 38707 ft 606 kts 77°
2026-05-06 18:51 32.27851 -100.75051 39033 ft 612 kts 76°
2026-05-06 18:52 32.29007 -100.70086 39040 ft 623 kts 77°
2026-05-06 18:52 32.31340 -100.60036 39045 ft 636 kts 77°
2026-05-06 18:53 32.33703 -100.49823 39056 ft 639 kts 76°
2026-05-06 18:53 32.35997 -100.39865 39057 ft 639 kts 76°
2026-05-06 18:54 32.38346 -100.29622 39023 ft 638 kts 77°
2026-05-06 18:54 32.40670 -100.19440 39018 ft 638 kts 77°
2026-05-06 18:55 32.42992 -100.09219 39015 ft 637 kts 77°
2026-05-06 18:55 32.45025 -100.00222 39021 ft 637 kts 77°
2026-05-06 18:56 32.46753 -99.92312 39018 ft 636 kts 81°
2026-05-06 18:56 32.47571 -99.83395 39024 ft 626 kts 95°
2026-05-06 18:57 32.46967 -99.73058 39032 ft 620 kts 102°
2026-05-06 18:57 32.46121 -99.62774 39040 ft 621 kts 101°
2026-05-06 18:58 32.45258 -99.52546 39041 ft 622 kts 102°
2026-05-06 18:58 32.44378 -99.42281 39035 ft 623 kts 102°
2026-05-06 18:59 32.43487 -99.32027 38996 ft 622 kts 102°
2026-05-06 18:59 32.42585 -99.21777 38994 ft 622 kts 102°
2026-05-06 19:00 32.41669 -99.11468 38999 ft 623 kts 103°
2026-05-06 19:00 32.40747 -99.01211 39005 ft 623 kts 102°
2026-05-06 19:01 32.39810 -98.90884 39007 ft 625 kts 102°
2026-05-06 19:01 32.38862 -98.80518 39013 ft 624 kts 102°
2026-05-06 19:02 32.37916 -98.70284 39023 ft 625 kts 102°
2026-05-06 19:02 32.36956 -98.59983 39014 ft 624 kts 102°
2026-05-06 19:03 32.35989 -98.49706 39000 ft 624 kts 102°
2026-05-06 19:03 32.35017 -98.39458 39018 ft 624 kts 102°
2026-05-06 19:04 32.34033 -98.29182 38992 ft 623 kts 103°
2026-05-06 19:04 32.33040 -98.18897 38999 ft 623 kts 103°
2026-05-06 19:05 32.32046 -98.08699 38994 ft 621 kts 103°
2026-05-06 19:05 32.31046 -97.98511 38996 ft 620 kts 102°
2026-05-06 19:06 32.30034 -97.88304 39000 ft 622 kts 103°
2026-05-06 19:06 32.29014 -97.78090 39004 ft 621 kts 103°
2026-05-06 19:07 32.27990 -97.67919 39001 ft 621 kts 102°
2026-05-06 19:07 32.26947 -97.57652 39000 ft 620 kts 102°
2026-05-06 19:08 32.25903 -97.47456 38998 ft 620 kts 102°
2026-05-06 19:08 32.24853 -97.37276 39004 ft 620 kts 102°
2026-05-06 19:09 32.23793 -97.27079 38976 ft 618 kts 103°
2026-05-06 19:09 32.22722 -97.16872 38986 ft 619 kts 103°
2026-05-06 19:10 32.21646 -97.06691 38994 ft 619 kts 103°
2026-05-06 19:10 32.20568 -96.96564 38996 ft 618 kts 103°
2026-05-06 19:11 32.19478 -96.86416 38990 ft 620 kts 102°
2026-05-06 19:11 32.18372 -96.76187 38987 ft 618 kts 103°
2026-05-06 19:12 32.17271 -96.66081 38986 ft 618 kts 102°
2026-05-06 19:12 32.16156 -96.55928 38983 ft 618 kts 103°
2026-05-06 19:13 32.15034 -96.45790 38985 ft 620 kts 102°
2026-05-06 19:13 32.13902 -96.35631 38982 ft 619 kts 102°
2026-05-06 19:14 32.12758 -96.25435 38960 ft 618 kts 103°
2026-05-06 19:14 32.11621 -96.15382 38962 ft 616 kts 103°
2026-05-06 19:15 32.10465 -96.05238 38952 ft 616 kts 103°
2026-05-06 19:15 32.09309 -95.95168 38950 ft 617 kts 103°
2026-05-06 19:16 32.08137 -95.85023 38954 ft 616 kts 103°
2026-05-06 19:16 32.06962 -95.74930 38959 ft 617 kts 103°
2026-05-06 19:17 32.05779 -95.64838 38969 ft 616 kts 102°
2026-05-06 19:17 32.04587 -95.54743 38969 ft 618 kts 102°
2026-05-06 19:18 32.03382 -95.44599 38970 ft 616 kts 103°
2026-05-06 19:18 32.02179 -95.34545 38968 ft 615 kts 103°
2026-05-06 19:19 32.00963 -95.24462 38936 ft 615 kts 103°
2026-05-06 19:19 31.99741 -95.14392 38938 ft 615 kts 102°
2026-05-06 19:20 31.98505 -95.04272 38940 ft 615 kts 103°
2026-05-06 19:20 31.97277 -94.94289 38938 ft 615 kts 103°
2026-05-06 19:21 31.96037 -94.84274 38942 ft 614 kts 103°
2026-05-06 19:21 31.94789 -94.74261 38943 ft 614 kts 103°
2026-05-06 19:22 31.93538 -94.64281 38936 ft 614 kts 103°
2026-05-06 19:22 31.92271 -94.54250 38928 ft 614 kts 102°
2026-05-06 19:23 31.91009 -94.44320 38931 ft 614 kts 102°
2026-05-06 19:23 31.89727 -94.34298 38940 ft 614 kts 103°
2026-05-06 19:24 31.88442 -94.24307 38918 ft 613 kts 103°
2026-05-06 19:24 31.87147 -94.14310 38918 ft 614 kts 103°
2026-05-06 19:25 31.85850 -94.04359 38921 ft 614 kts 103°
2026-05-06 19:25 31.84541 -93.94382 38926 ft 614 kts 103°
2026-05-06 19:26 31.83226 -93.84418 38927 ft 613 kts 102°
2026-05-06 19:26 31.81902 -93.74439 38930 ft 612 kts 103°
2026-05-06 19:27 31.80580 -93.64547 38928 ft 612 kts 102°
2026-05-06 19:27 31.79246 -93.54626 38924 ft 612 kts 102°
2026-05-06 19:28 31.77895 -93.44640 38924 ft 612 kts 103°
2026-05-06 19:28 31.76541 -93.34683 38924 ft 611 kts 103°
2026-05-06 19:29 31.75179 -93.24728 38901 ft 610 kts 103°
2026-05-06 19:29 31.73814 -93.14816 38908 ft 609 kts 103°
2026-05-06 19:30 31.72442 -93.04911 38913 ft 608 kts 103°
2026-05-06 19:30 31.71069 -92.95055 38904 ft 609 kts 103°
2026-05-06 19:31 31.69688 -92.85204 38905 ft 609 kts 103°
2026-05-06 19:31 31.67840 -92.72102 38905 ft 610 kts 103°
2026-05-06 19:32 31.66438 -92.62230 38906 ft 610 kts 103°
2026-05-06 19:32 31.65035 -92.52409 38907 ft 609 kts 103°
2026-05-06 19:33 31.63617 -92.42532 38907 ft 608 kts 103°
2026-05-06 19:33 31.62194 -92.32685 38894 ft 608 kts 104°
2026-05-06 19:34 31.60757 -92.22794 38892 ft 608 kts 104°
2026-05-06 19:34 31.59318 -92.12946 38896 ft 609 kts 104°
2026-05-06 19:35 31.57882 -92.03168 38900 ft 609 kts 104°
2026-05-06 19:35 31.56429 -91.93331 38897 ft 609 kts 103°
2026-05-06 19:36 31.54964 -91.83465 38902 ft 608 kts 104°
2026-05-06 19:36 31.53504 -91.73685 38901 ft 608 kts 103°
2026-05-06 19:37 31.52025 -91.63834 38904 ft 607 kts 103°
2026-05-06 19:37 31.50791 -91.55658 38908 ft 607 kts 103°
2026-05-06 19:38 31.49059 -91.44237 38915 ft 607 kts 103°
2026-05-06 19:38 31.47562 -91.34427 38922 ft 607 kts 103°
2026-05-06 19:39 31.46060 -91.24629 38902 ft 606 kts 104°
2026-05-06 19:39 31.44550 -91.14838 38897 ft 605 kts 103°
2026-05-06 19:40 31.43043 -91.05115 38897 ft 605 kts 104°
2026-05-06 19:40 31.41514 -90.95300 38898 ft 604 kts 104°
2026-05-06 19:41 31.39995 -90.85603 38903 ft 604 kts 103°
2026-05-06 19:41 31.38456 -90.75826 38913 ft 603 kts 103°
2026-05-06 19:42 31.36916 -90.66099 38930 ft 603 kts 103°
2026-05-06 19:42 31.35368 -90.56364 38939 ft 603 kts 104°
2026-05-06 19:43 31.33822 -90.46691 38944 ft 602 kts 103°
2026-05-06 19:43 31.32265 -90.37000 38948 ft 602 kts 103°
2026-05-06 19:44 31.30695 -90.27278 38933 ft 602 kts 104°
2026-05-06 19:44 31.29533 -90.17506 38921 ft 604 kts 98°
2026-05-06 19:45 31.28737 -90.07636 38938 ft 604 kts 98°
2026-05-06 19:45 31.27912 -89.97817 38932 ft 604 kts 98°
2026-05-06 19:46 31.27052 -89.87933 38935 ft 604 kts 98°
2026-05-06 19:46 31.26181 -89.78135 38932 ft 603 kts 98°
2026-05-06 19:47 31.25296 -89.68346 38933 ft 603 kts 98°
2026-05-06 19:47 31.24394 -89.58502 38935 ft 602 kts 98°
2026-05-06 19:48 31.23486 -89.48712 38946 ft 602 kts 98°
2026-05-06 19:48 31.22572 -89.38941 38956 ft 602 kts 98°
2026-05-06 19:49 31.21645 -89.29125 38948 ft 602 kts 98°
2026-05-06 19:49 31.20710 -89.19309 38952 ft 601 kts 98°
2026-05-06 19:50 31.19776 -89.09598 38950 ft 600 kts 98°
2026-05-06 19:50 31.18823 -88.99762 38944 ft 600 kts 98°
2026-05-06 19:51 31.17866 -88.89965 38949 ft 599 kts 98°
2026-05-06 19:51 31.16910 -88.80254 38952 ft 600 kts 98°
2026-05-06 19:52 31.15937 -88.70451 38953 ft 601 kts 98°
2026-05-06 19:52 31.14962 -88.60697 38955 ft 602 kts 98°
2026-05-06 19:53 31.13975 -88.50899 38962 ft 602 kts 98°
2026-05-06 19:53 31.12984 -88.41151 38962 ft 601 kts 98°
2026-05-06 19:54 31.11987 -88.31407 38936 ft 602 kts 98°
2026-05-06 19:54 31.10983 -88.21662 38943 ft 601 kts 98°
2026-05-06 19:55 31.10095 -88.13115 38946 ft 600 kts 98°
2026-05-06 19:55 31.09075 -88.03364 38945 ft 601 kts 98°
2026-05-06 19:56 31.08051 -87.93640 38948 ft 601 kts 98°
2026-05-06 19:56 31.07020 -87.83919 38960 ft 600 kts 98°
2026-05-06 19:57 31.05983 -87.74216 38964 ft 601 kts 98°
2026-05-06 19:57 31.04938 -87.64513 38965 ft 600 kts 98°
2026-05-06 19:58 31.03881 -87.54771 38966 ft 601 kts 98°
2026-05-06 19:58 31.02815 -87.45007 38983 ft 601 kts 98°
2026-05-06 19:59 31.01749 -87.35313 38977 ft 601 kts 98°
2026-05-06 19:59 31.00662 -87.25495 38962 ft 600 kts 99°
2026-05-06 20:00 30.99582 -87.15813 38983 ft 600 kts 99°
2026-05-06 20:00 30.98600 -87.07064 38980 ft 600 kts 98°
2026-05-06 20:01 30.97561 -86.97870 38989 ft 600 kts 99°
2026-05-06 20:01 30.96464 -86.88227 38997 ft 600 kts 99°
2026-05-06 20:02 30.95347 -86.78473 38996 ft 599 kts 98°
2026-05-06 20:02 30.94231 -86.68787 38993 ft 599 kts 98°
2026-05-06 20:03 30.93106 -86.59094 38998 ft 598 kts 98°
2026-05-06 20:03 30.91975 -86.49419 39001 ft 598 kts 98°
2026-05-06 20:04 30.90840 -86.39771 39004 ft 598 kts 98°
2026-05-06 20:04 30.89695 -86.30091 38977 ft 598 kts 99°
2026-05-06 20:05 30.88537 -86.20370 38985 ft 597 kts 98°
2026-05-06 20:05 30.87385 -86.10766 38984 ft 597 kts 99°
2026-05-06 20:06 30.86211 -86.01042 38977 ft 597 kts 99°
2026-05-06 20:06 30.85042 -85.91416 38986 ft 596 kts 99°
2026-05-06 20:07 30.83863 -85.81770 38995 ft 596 kts 99°
2026-05-06 20:07 30.82677 -85.72122 38989 ft 597 kts 99°
2026-05-06 20:08 30.81488 -85.62525 38993 ft 597 kts 99°
2026-05-06 20:08 30.80292 -85.52917 38999 ft 597 kts 99°
2026-05-06 20:09 30.79082 -85.43259 39003 ft 597 kts 99°
2026-05-06 20:09 30.77877 -85.33704 39008 ft 597 kts 99°
2026-05-06 20:10 30.76656 -85.24077 39007 ft 595 kts 99°
2026-05-06 20:10 30.75432 -85.14487 38996 ft 595 kts 99°
2026-05-06 20:11 30.74200 -85.04893 38988 ft 596 kts 99°
2026-05-06 20:11 30.72968 -84.95355 38997 ft 595 kts 99°
2026-05-06 20:12 30.71718 -84.85729 38994 ft 596 kts 99°
2026-05-06 20:12 30.70469 -84.76176 39001 ft 595 kts 99°
2026-05-06 20:13 30.69215 -84.66633 38998 ft 596 kts 99°
2026-05-06 20:13 30.67951 -84.57072 39004 ft 596 kts 99°
2026-05-06 20:14 30.66678 -84.47501 39006 ft 596 kts 99°
2026-05-06 20:14 30.65391 -84.37881 39010 ft 597 kts 99°
2026-05-06 20:15 30.64195 -84.28992 39002 ft 596 kts 99°
2026-05-06 20:15 30.62966 -84.19898 39002 ft 596 kts 99°
2026-05-06 20:16 30.61672 -84.10387 39001 ft 595 kts 99°
2026-05-06 20:16 30.60362 -84.00801 39004 ft 596 kts 99°
2026-05-06 20:17 30.59049 -83.91252 39013 ft 596 kts 99°
2026-05-06 20:17 30.57731 -83.81722 39019 ft 595 kts 99°
2026-05-06 20:18 30.56403 -83.72173 39017 ft 594 kts 99°
2026-05-06 20:18 30.55066 -83.62614 39018 ft 594 kts 99°
2026-05-06 20:19 30.53729 -83.53103 39014 ft 594 kts 99°
2026-05-06 20:19 30.52675 -83.43510 39017 ft 593 kts 95°
2026-05-06 20:20 30.51850 -83.33943 39019 ft 594 kts 95°
2026-05-06 20:20 30.51073 -83.25172 39007 ft 593 kts 96°
2026-05-06 20:21 30.50267 -83.16259 39004 ft 593 kts 96°
2026-05-06 20:21 30.49385 -83.06663 39003 ft 593 kts 95°
2026-05-06 20:22 30.48492 -82.97083 39002 ft 593 kts 95°
2026-05-06 20:22 30.47595 -82.87550 39006 ft 593 kts 95°
2026-05-06 20:23 30.46681 -82.77941 39007 ft 594 kts 95°
2026-05-06 20:23 30.45767 -82.68414 39009 ft 593 kts 95°
2026-05-06 20:24 30.44844 -82.58874 39008 ft 594 kts 95°
2026-05-06 20:24 30.43909 -82.49295 39010 ft 594 kts 95°
2026-05-06 20:25 30.42973 -82.39765 39010 ft 593 kts 95°
2026-05-06 20:25 30.42025 -82.30196 38988 ft 593 kts 96°
2026-05-06 20:26 30.41072 -82.20648 38986 ft 593 kts 96°
2026-05-06 20:26 30.40108 -82.11066 38983 ft 593 kts 96°
2026-05-06 20:27 30.39147 -82.01585 38899 ft 575 kts 96°
2026-05-06 20:27 30.38687 -81.97087 39008 ft 540 kts 96°
2026-05-06 20:27 30.38261 -81.92947 38957 ft 492 kts 95°
2026-05-06 20:28 30.37866 -81.89114 38240 ft 470 kts 95°
2026-05-06 20:28 30.37482 -81.85389 36863 ft 465 kts 94°
2026-05-06 20:28 30.37096 -81.81645 35305 ft 463 kts 94°
2026-05-06 20:28 30.36713 -81.77937 33602 ft 463 kts 93°
2026-05-06 20:29 30.36331 -81.74243 32027 ft 462 kts 94°
2026-05-06 20:29 30.35946 -81.70534 30503 ft 459 kts 94°
2026-05-06 20:29 30.35564 -81.66870 28988 ft 455 kts 94°
2026-05-06 20:29 30.35401 -81.63281 27470 ft 444 kts 79°
2026-05-06 20:30 30.36093 -81.59866 25961 ft 425 kts 60°
2026-05-06 20:30 30.39480 -81.54749 23033 ft 387 kts 35°
2026-05-06 20:30 30.41469 -81.52708 21677 ft 376 kts 34°
2026-05-06 20:31 30.43432 -81.50748 20337 ft 366 kts 34°
2026-05-06 20:31 30.45332 -81.48867 19032 ft 358 kts 33°
2026-05-06 20:31 30.47211 -81.47010 17726 ft 351 kts 33°
2026-05-06 20:31 30.49056 -81.45190 16422 ft 345 kts 33°
2026-05-06 20:32 30.50877 -81.43411 15109 ft 339 kts 33°
2026-05-06 20:32 30.52672 -81.41685 13811 ft 333 kts 34°
2026-05-06 20:32 30.54456 -81.40012 12522 ft 327 kts 34°
2026-05-06 20:32 30.56165 -81.38312 11205 ft 327 kts 46°
2026-05-06 20:33 30.57284 -81.36029 9906 ft 325 kts 72°
2026-05-06 20:33 30.57503 -81.33491 8780 ft 315 kts 98°
2026-05-06 20:33 30.56834 -81.31142 7728 ft 303 kts 123°
2026-05-06 20:33 30.55428 -81.29401 6635 ft 291 kts 149°
2026-05-06 20:34 30.53605 -81.28584 5552 ft 279 kts 175°
2026-05-06 20:34 30.51723 -81.28799 4459 ft 269 kts 203°
2026-05-06 20:34 30.50234 -81.29949 3645 ft 252 kts 227°
2026-05-06 20:34 30.49105 -81.31447 2940 ft 240 kts 230°
2026-05-06 20:35 30.48031 -81.32906 2328 ft 229 kts 228°
2026-05-06 20:35 30.46949 -81.34212 1994 ft 215 kts 223°
2026-05-06 20:35 30.45904 -81.35393 1714 ft 201 kts 222°
2026-05-06 20:35 30.44906 -81.36498 1442 ft 189 kts 221°
2026-05-06 20:36 30.43969 -81.37492 1168 ft 176 kts 220°
2026-05-06 20:36 30.43062 -81.38427 856 ft 168 kts 217°
2026-05-06 20:36 30.42163 -81.39256 614 ft 159 kts 218°
2026-05-06 20:36 30.41350 -81.40099 335 ft 154 kts 219°
2026-05-06 20:37 30.40557 -81.40926 160 ft 153 kts 220°
2026-05-06 20:37 30.39775 -81.41790 45 ft 151 kts 219°
2026-05-06 20:37 30.39080 -81.42512 22 ft 94 kts 222°
2026-05-06 20:37 30.38771 -81.42845 22 ft 25 kts 215°
2026-05-06 20:38 30.38655 -81.42780 22 ft 17 kts 108°
2026-05-06 20:38 30.38729 -81.42673 22 ft 22 kts 43°
2026-05-06 20:38 30.38863 -81.42528 22 ft 28 kts 43°
2026-05-06 20:38 30.39015 -81.42366 22 ft 29 kts 42°
2026-05-06 20:39 30.39170 -81.42198 22 ft 30 kts 44°
2026-05-06 20:39 30.39313 -81.42027 22 ft 23 kts 71°
2026-05-06 20:39 30.39321 -81.41865 21 ft 9 kts 94°
2026-05-06 20:39 30.39336 -81.41794 21 ft 8 kts 71°
2026-05-06 20:40 30.39330 -81.41758 21 ft 1 kts 129°
2026-05-06 20:40 30.39319 -81.41754 21 ft 1 kts 175°
2026-05-06 20:40 30.39317 -81.41753 21 ft 0 kts 175°